Theta_e
318 317 317 317 316 315 320 322 327 324 321 321 322 321 319 320 325 330 327 325 325 325 325 325 325 327 329 329 328 328 328 328 330 331 330 331 330 332 335 337 337 338 343 344
318 317 316 315 313 312 315 325 326 323 321 321 320 321 321 322 324 329 328 325 324 324 324 325 326 326 329 329 328 327 327 328 327 325 327 329 330 329 330 334 334 340 348 347
317 315 315 313 312 312 314 325 327 326 324 321 318 320 321 322 324 328 328 325 323 323 323 325 327 324 325 325 324 332 324 326 324 324 325 324 329 331 332 334 336 337 340 341
315 314 312 311 311 312 315 326 325 324 326 326 321 321 323 325 324 326 328 326 324 323 325 326 326 325 325 324 331 322 321 322 322 323 324 324 323 323 325 334 333 336 337 339
313 311 311 311 312 313 318 326 326 324 325 324 327 323 322 326 326 327 328 328 325 324 325 327 328 327 326 326 326 327 324 326 327 327 325 324 324 325 324 330 332 332 333 340
311 310 311 311 312 313 322 322 323 323 322 323 325 328 322 323 324 325 328 327 326 325 324 325 327 326 326 326 327 327 327 328 330 330 328 329 329 328 330 332 333 332 335 336
310 310 311 311 311 312 317 320 321 325 325 322 322 324 326 329 323 326 326 328 328 327 326 326 326 326 324 325 325 323 324 328 329 330 327 328 328 331 331 331 331 329 330 334
310 310 311 311 312 311 315 318 320 323 326 322 323 324 325 328 332 325 325 328 329 329 326 327 327 326 325 325 326 325 323 326 327 329 330 330 330 332 331 331 332 332 334 334
311 309 310 311 312 311 313 317 317 318 323 324 320 322 323 327 332 331 324 326 329 327 328 328 329 328 328 330 328 326 324 325 326 328 330 332 333 332 330 331 332 328 337 335
310 309 309 310 311 312 313 316 318 318 322 321 321 322 323 323 329 334 332 330 328 327 329 327 327 328 328 330 329 329 331 327 327 329 329 329 334 331 332 339 342 334 332 334
310 310 308 310 311 312 312 316 318 317 321 322 321 321 323 323 326 334 331 329 327 326 330 328 327 327 331 331 329 326 330 336 335 334 337 338 334 334 337 340 338 331 329 326
310 310 308 310 311 312 312 315 318 317 317 319 318 318 319 320 321 324 326 329 331 326 326 328 326 328 330 329 329 328 328 329 334 336 339 336 334 334 332 331 336 337 329 325
309 310 309 309 312 313 312 315 315 315 316 319 320 321 319 319 319 320 329 326 326 327 327 332 328 334 330 330 329 332 333 331 334 336 334 334 333 332 332 332 334 336 333 339
309 309 309 310 312 313 312 313 314 315 315 320 322 322 322 321 319 318 320 323 322 322 325 331 329 331 329 329 331 333 336 333 331 331 330 336 336 336 334 338 339 342 341 340
309 309 309 310 312 312 312 313 313 314 315 321 321 318 320 321 321 321 320 321 323 324 327 326 330 329 327 329 329 332 332 332 332 334 337 338 337 331 337 340 340 336 340 339
308 309 309 310 312 313 314 316 316 315 313 315 322 321 321 321 321 322 322 323 323 322 324 328 327 327 329 332 330 335 330 328 330 331 337 337 335 335 338 337 337 337 337 337
308 309 309 311 313 313 314 317 313 316 313 315 323 325 322 321 322 322 322 322 322 324 324 325 328 330 330 328 328 329 329 328 329 326 331 336 332 342 338 337 336 334 334 332
309 309 310 312 312 312 313 314 312 314 313 317 325 324 325 323 324 324 323 324 326 326 324 325 327 328 330 330 328 329 326 328 329 326 328 331 330 331 331 332 334 336 335 333
308 308 310 312 311 313 316 314 313 313 314 321 324 325 330 325 326 324 324 326 329 325 328 329 328 329 336 331 335 327 325 325 329 327 326 329 332 331 330 331 331 334 334 334
307 310 313 316 315 315 313 313 316 316 316 317 323 323 328 326 327 329 329 328 329 330 328 328 329 330 330 329 332 330 327 326 325 328 329 328 333 331 329 328 334 334 335 333
310 313 315 315 314 315 318 321 322 321 323 322 322 321 324 325 329 331 329 334 333 334 332 329 331 332 334 335 334 333 328 328 326 326 328 327 328 332 330 329 329 331 335 334
312 312 312 314 318 319 322 324 323 324 324 323 323 322 322 326 330 331 328 332 332 334 331 329 332 333 334 336 333 330 330 328 327 326 328 328 327 329 332 330 329 329 334 335
309 311 314 319 321 323 323 324 325 325 322 323 323 324 325 324 328 331 328 330 333 332 334 332 331 335 335 337 332 330 331 329 329 326 327 327 327 327 331 331 328 329 333 335
312 315 315 320 322 322 322 323 325 325 325 325 321 322 323 324 325 327 329 330 329 334 333 334 330 338 337 336 332 332 329 329 331 331 331 329 331 331 330 329 329 330 332 335
313 316 319 320 321 321 322 322 322 325 324 324 327 326 324 325 327 328 327 328 329 329 328 331 335 340 339 336 331 330 330 330 331 332 331 330 329 332 330 328 329 331 332 332
313 315 319 321 324 323 324 324 326 324 325 322 324 327 326 327 326 326 327 324 327 330 329 332 336 341 339 338 333 331 329 329 329 330 330 329 329 333 331 329 330 333 333 333
315 318 318 319 322 324 323 322 323 322 324 322 322 325 327 325 324 323 323 323 324 327 331 333 329 332 341 338 334 333 332 331 330 331 331 331 330 331 331 334 331 333 333 333
Wind_Speed
16 18 22 24 26 30 13 9 6 11 12 8 9 14 23 21 23 8 12 11 14 7 10 3 7 4 2 8 2 4 6 6 10 11 6 8 10 9 8 7 10 8 7 8
16 19 20 19 20 21 13 5 10 9 12 9 12 17 23 24 25 14 13 13 14 6 3 3 6 1 11 6 2 9 8 6 9 12 10 9 9 10 11 8 10 8 7 5
17 17 17 16 17 17 10 5 5 7 7 12 18 17 17 20 25 15 12 16 13 7 8 11 3 5 8 4 3 7 4 11 11 12 15 11 7 12 15 2 7 12 9 14
16 14 13 14 16 15 7 5 5 10 7 5 15 18 19 20 23 13 22 15 16 13 10 10 11 7 11 10 11 5 5 11 13 14 16 16 16 14 13 8 11 11 14 19
13 12 12 15 16 15 5 6 6 9 11 15 18 12 18 21 14 17 20 15 18 14 12 12 9 12 8 5 13 9 11 13 11 12 15 15 17 15 18 10 10 10 14 10
10 9 11 13 15 12 7 15 11 8 10 13 13 13 13 19 18 18 17 18 13 16 13 13 10 5 4 3 8 11 5 9 9 12 15 14 11 11 8 2 8 10 12 8
9 9 9 11 13 9 11 13 10 6 9 9 14 20 22 20 18 17 12 15 14 15 4 13 6 6 8 8 4 9 10 9 7 10 11 14 4 14 9 9 11 15 13 5
9 9 7 9 11 9 8 9 8 5 8 11 16 15 20 21 21 17 11 9 9 12 4 6 6 6 9 11 12 11 11 7 8 10 13 15 8 4 6 14 20 13 15 5
10 9 8 8 9 9 7 8 4 3 5 8 16 13 16 14 14 14 15 12 7 7 6 9 9 8 7 5 5 8 7 6 7 9 13 16 10 9 4 6 14 15 19 4
11 9 9 9 8 8 6 7 4 5 7 14 15 11 10 13 9 7 9 10 10 12 9 10 9 9 8 5 10 5 8 8 10 10 12 11 5 4 5 8 7 12 17 15
12 10 9 9 9 7 5 10 6 8 6 15 20 18 15 11 4 2 9 8 7 9 9 8 6 3 5 9 6 12 9 8 8 10 5 9 5 9 14 6 4 6 12 14
13 11 9 9 9 8 6 8 5 7 6 11 27 26 25 19 12 3 7 9 12 3 7 4 2 6 11 7 8 12 10 8 5 3 3 9 4 7 7 6 9 1 13 22
12 11 9 9 9 9 9 10 9 5 5 14 18 16 31 27 23 19 3 5 9 10 10 5 3 6 8 8 4 7 12 2 4 5 5 22 5 7 5 5 16 4 21 16
12 11 10 10 10 9 9 7 6 6 6 5 5 17 16 15 19 23 21 19 18 13 8 3 2 6 7 5 5 4 6 2 3 8 4 8 9 9 2 5 5 4 12 13
11 11 10 9 9 9 9 13 16 15 4 4 10 27 22 14 18 20 22 19 10 7 5 7 4 12 3 6 3 4 8 5 5 3 11 8 10 15 10 7 19 8 6 14
10 11 9 9 8 7 5 3 8 11 8 3 4 6 14 11 16 12 12 12 8 4 4 7 6 6 2 6 9 15 12 2 3 7 16 8 7 5 19 4 13 13 13 13
9 8 8 8 9 7 6 2 2 6 10 3 4 4 8 15 11 10 8 15 7 6 8 9 8 4 9 9 3 11 5 11 10 4 8 10 6 11 16 12 11 15 17 18
7 6 6 6 6 8 10 14 10 11 4 5 4 6 5 8 7 9 10 9 8 8 7 8 5 1 3 5 6 11 4 3 12 6 8 8 9 8 5 6 11 12 11 10
6 5 5 4 4 4 3 1 17 9 4 4 5 7 2 9 8 9 10 8 8 7 11 12 6 4 1 14 11 4 2 5 7 8 7 7 15 11 8 8 11 14 13 12
3 2 3 3 5 7 8 7 5 4 4 4 6 5 2 4 4 4 2 7 6 9 11 6 10 11 12 21 18 6 2 5 7 9 9 6 15 13 10 8 11 10 10 14
3 3 3 3 5 7 4 4 6 6 5 6 8 11 4 6 4 3 6 3 1 2 5 8 6 9 12 14 11 7 6 7 9 10 10 11 8 12 12 10 10 14 20 14
3 4 5 4 4 4 5 4 4 6 4 4 8 8 6 2 3 3 3 2 2 7 6 7 8 10 18 16 15 11 10 12 12 12 13 11 10 11 13 10 10 9 21 25
2 1 3 3 5 6 6 6 5 5 3 3 4 4 5 5 5 2 3 2 2 3 5 5 5 10 8 8 9 13 12 16 15 13 16 12 14 14 18 12 14 14 19 23
2 2 3 4 5 6 7 2 5 3 4 6 3 4 4 5 3 3 5 5 2 5 4 3 6 9 8 7 9 11 14 14 16 12 11 11 10 13 14 19 16 18 16 27
2 3 4 6 8 5 5 5 2 2 4 5 3 4 4 3 4 2 4 5 4 5 4 3 6 8 8 7 8 10 12 12 11 11 12 10 14 13 14 18 18 22 21 17
3 5 5 8 7 7 6 5 4 4 2 2 3 3 4 4 4 6 7 4 5 1 4 7 10 11 3 3 3 1 3 3 8 10 12 13 14 11 17 18 18 26 26 22
4 6 9 10 5 4 3 6 2 3 5 2 2 4 8 5 5 6 3 5 3 7 4 9 9 6 6 6 4 4 5 6 8 7 10 14 16 14 19 12 18 25 26 25
Wind_Direction
326 329 332 337 342 343 354 290 264 145 171 198 223 231 239 252 262 203 251 261 264 213 245 203 255 277 33 107 5 253 332 291 275 245 252 224 251 250 273 238 257 261 326 289
322 326 329 338 346 360 334 287 282 173 203 234 230 233 251 252 253 242 207 252 249 215 159 227 263 223 98 92 327 27 334 254 247 253 262 216 235 259 235 306 299 265 215 241
319 318 329 337 344 348 344 283 285 207 207 246 265 254 235 245 256 253 206 235 233 206 215 190 201 229 139 112 271 46 317 284 299 294 316 315 277 262 278 260 285 312 303 316
314 322 331 335 339 342 333 249 294 331 297 256 251 260 268 263 245 210 256 208 236 213 206 201 203 238 159 170 147 220 251 250 258 265 278 286 285 280 278 270 281 264 300 305
317 331 337 336 342 333 258 289 341 335 302 302 299 260 253 274 247 242 235 234 213 236 202 229 210 203 209 271 151 201 227 250 275 281 280 279 282 288 287 222 283 303 258 325
322 332 338 341 342 352 303 349 307 282 284 299 298 280 258 262 276 251 228 231 232 223 232 228 243 215 206 228 214 238 238 263 278 283 293 305 261 265 342 206 217 246 275 295
321 327 336 336 336 339 309 317 306 281 274 262 272 326 313 307 252 264 255 242 220 242 269 265 229 200 229 223 260 254 230 268 276 265 280 275 332 42 11 332 296 289 243 190
313 315 320 322 326 329 313 309 302 308 270 260 275 302 322 314 312 263 274 222 295 263 177 235 226 234 253 254 243 230 266 230 253 270 270 265 271 34 324 305 284 264 278 255
310 311 311 307 314 323 309 283 283 273 313 254 259 305 308 304 319 310 242 256 299 268 263 204 214 226 233 241 229 199 261 256 248 268 276 286 357 35 351 349 288 259 353 83
306 310 315 302 307 310 293 282 275 278 263 266 268 270 295 319 355 307 302 312 212 261 246 229 211 224 276 215 243 175 208 223 241 234 242 265 136 226 171 267 349 22 15 6
300 304 312 300 298 302 287 284 267 256 288 287 284 288 280 293 28 358 310 297 187 221 238 250 211 261 210 244 245 255 252 212 238 251 305 271 81 202 224 10 81 76 33 333
294 295 301 302 296 287 276 281 295 239 254 284 301 281 268 260 269 294 296 309 294 262 225 236 249 221 270 229 236 204 244 271 323 38 266 330 262 262 282 315 323 51 163 215
285 290 291 292 294 281 253 271 298 293 276 278 250 252 255 239 227 218 244 288 358 345 332 294 177 299 239 243 228 211 209 266 234 154 231 237 327 330 351 344 91 31 221 193
283 287 289 289 292 279 258 243 262 254 286 281 338 353 222 241 210 221 221 256 290 306 300 298 255 241 218 253 138 143 279 86 259 254 272 80 18 330 130 99 63 134 95 97
276 280 284 286 289 278 272 269 261 238 269 312 304 306 270 226 208 212 213 233 269 286 303 255 166 234 284 294 144 171 198 211 201 35 124 153 241 264 296 121 90 11 198 111
274 275 278 280 281 275 278 275 202 206 190 280 286 301 266 226 210 209 205 216 219 250 283 298 282 28 353 239 231 155 170 108 164 90 153 164 199 73 311 122 121 156 98 111
270 266 272 282 271 239 233 309 303 186 169 246 273 249 204 222 206 195 203 214 215 227 254 272 296 89 295 277 153 300 2 138 119 115 142 150 151 157 194 152 117 111 114 115
260 264 275 274 274 276 268 252 199 169 225 260 268 267 192 211 190 197 205 186 202 201 233 252 238 55 345 256 160 148 145 254 137 160 171 189 156 131 142 141 128 111 119 125
246 263 277 267 231 226 240 193 188 181 239 288 267 256 302 337 274 197 191 184 196 200 205 225 231 173 200 274 312 97 89 277 160 167 217 217 150 150 158 178 168 160 155 149
247 263 224 231 217 188 135 159 179 204 206 236 252 281 171 266 2 294 323 185 198 189 220 197 222 236 193 228 256 196 169 305 282 184 209 230 171 158 167 192 160 143 187 160
211 229 234 302 185 205 207 221 211 187 222 211 236 236 219 201 176 258 337 47 148 246 211 196 205 227 229 227 234 191 214 248 262 256 237 212 209 163 170 193 185 170 170 150
172 289 286 254 216 229 236 221 217 213 247 225 209 200 203 96 105 171 323 315 351 236 161 194 224 207 215 216 212 217 210 234 244 249 249 207 197 201 166 193 178 177 158 166
322 274 261 215 208 229 234 208 209 212 253 156 211 169 169 170 150 139 111 303 224 326 255 208 219 206 145 201 209 226 216 235 242 235 236 221 190 213 174 179 178 166 144 156
250 220 264 248 216 232 222 248 277 205 327 286 150 209 190 186 221 139 156 186 16 284 208 259 292 176 175 204 214 213 234 240 243 215 231 219 214 189 179 169 172 157 155 150
242 233 232 244 250 268 291 269 276 39 65 12 8 55 317 233 138 197 231 185 193 225 281 90 161 186 177 184 199 207 216 225 231 212 210 211 222 183 166 171 177 159 153 167
235 238 260 268 276 286 316 22 357 7 37 89 91 42 298 156 267 183 213 207 204 291 353 9 12 6 126 107 132 29 325 257 235 209 197 208 216 197 163 169 180 158 161 169
245 239 235 253 241 276 301 297 128 194 220 132 114 213 223 314 230 227 228 242 324 165 94 121 96 333 333 351 338 256 244 245 264 264 211 205 210 203 164 169 176 167 168 175